This demonstration page uses our WeatherBlox Daily Observations layout. Learn more.

Left ArrowRight Arrow

Hourly Observations for October 15, 2021

Temp ( °F °C ) Dew Point ( °F °C ) Humidity (%) Winds ( mph kmh ) Pressure ( in mb ) Visibility ( mi km ) Precip ( " mm )
12:53 am 00:53 Clear 65 18.3 24 -4.4 21 21 NW 10 17 29.82 1010 10 16 N/A
1:53 am 01:53 Clear 61 16.1 23 -5 23 23 NNW 10 17 29.83 1010 10 16 N/A
2:53 am 02:53 Clear 60 15.6 23 -5 24 24 WSW 5 7 29.85 1011 10 16 N/A
3:53 am 03:53 Clear 53 11.7 22 -5.6 30 30 WNW 7 11 29.87 1012 10 16 N/A
4:53 am 04:53 Clear 54 12.2 22 -5.6 29 29 NW 9 15 29.88 1012 10 16 N/A
5:53 am 05:53 Clear 54 12.2 20 -6.7 26 26 NNW 9 15 29.93 1013 10 16 N/A
6:53 am 06:53 Clear 49 9.4 20 -6.7 32 32 NNW 6 9 29.98 1015 10 16 N/A
7:53 am 07:53 Clear 52 11.1 22 -5.6 31 31 N 12 19 30.01 1016 10 16 N/A
8:53 am 08:53 Sunny 54 12.2 24 -4.4 31 31 N 14 22 30.07 1018 10 16 N/A
9:53 am 09:53 Sunny 58 14.4 32 undefined 38 38 N 17 28 30.11 1020 10 16 N/A
10:53 am 10:53 Sunny 62 16.7 34 1.1 35 35 N 12 19 30.14 1021 10 16 N/A
11:53 am 11:53 Sunny 67 19.4 34 1.1 30 30 N 16 26 30.14 1021 10 16 N/A
12:53 pm 12:53 Sunny 69 20.6 32 undefined 25 25 NNE 18 30 30.14 1021 10 16 N/A
1:53 pm 13:53 Sunny 70 21.1 31 -0.6 23 23 NNE 16 26 30.13 1020 10 16 N/A
2:53 pm 14:53 Sunny 72 22.2 32 undefined 23 23 NE 7 11 30.11 1020 10 16 N/A
3:53 pm 15:53 Sunny 73 22.8 28 -2.2 19 19 NNE 16 26 30.11 1020 10 16 N/A
4:53 pm 16:53 Sunny 73 22.8 28 -2.2 19 19 NNE 13 20 30.11 1020 10 16 N/A
5:53 pm 17:53 Sunny 72 22.2 27 -2.8 19 19 NE 14 22 30.12 1020 10 16 N/A
6:53 pm 18:53 Sunny 69 20.6 26 -3.3 20 20 NE 12 19 30.16 1021 10 16 N/A
7:53 pm 19:53 Clear 64 17.8 26 -3.3 24 24 NE 8 13 30.18 1022 10 16 N/A
8:53 pm 20:53 Clear 59 15 26 -3.3 28 28 NNE 8 13 30.21 1023 10 16 N/A
9:53 pm 21:53 Clear 56 13.3 26 -3.3 32 32 NE 8 13 30.24 1024 10 16 N/A
10:53 pm 22:53 Clear 53 11.7 27 -2.8 37 37 NE 7 11 30.25 1025 10 16 N/A
11:53 pm 23:53 Clear 52 11.1 27 -2.8 38 38 NE 8 13 30.27 1025 10 16 N/A

Powered by AerisWeather